User: anonymous   Login
Location: Unspecified
(0.0000°N, 0.0000°E)
Time: 15:04:13
(UTC+00:00)
Language:

STSS DEMO 1 (USA 208) - Orbit

View from above orbital plane
View from above orbital plane
View from above satellite
View from above satellite

Ground track
Ground track

The orbit data is extracted from the following two-line orbital elements,

1 35937U 09052A   18140.99028653 0.00000000  00000-0  00000-0 0    02
2 35937  57.9869 190.2653 0010503 282.5823  77.4177 12.79328771    08
Epoch (UTC): 20 May 2018 23:46:00
Eccentricity: 0.0010503
inclination: 57.9869°
perigee height: 1336 km
apogee height: 1352 km
right ascension of ascending node: 190.2653°
argument of perigee: 282.5823°
revolutions per day: 12.79328771
mean anomaly at epoch: 77.4177°
orbit number at epoch: 0

The dashed part of the orbit path shows where the satellite is in the earth's shadow,  

DLR